Content
SEND FEEDBACK

Daily
Averages
Monthly
Summary
Thailand

PHUKET, THAILAND


Home > Asia > Thailand
Elevation: 33 feet     Latitude: 08 07N     Longitude: 098 19E

WEATHER
 
SELECT A DAY
Number of Records: 227,823;   Date Range: 7/1/96 - 8/30/14
 
SHARE

PRINT THIS DATA

[ ← Previous Day ]
WEATHER ALMANAC - APRIL 30, 2013
[ Next Day → ]
[ °C ]   °F
Weather ElementAverageHighLow
Temperature81.6 °F87.8 °F (10:30 am)75.2 °F (1:00 am)
Dewpoint73.8 °F78.8 °F (10:00 am) (7:00 pm)
Humidity81.3 %94 % (1:00 am)66 % (12:30 pm)
Barometer29.81 in29.89 in (10:30 am)29.76 in (7:00 pm)
Wind Speed4.3 mph10.4 mph (4:30 pm)
Weather ElementAverage
Visibility5 mi
Wind DirectionSE (138.6 °)

Weather ElementTotal
Precipitation---
Cooling Degree Days16.5 (Base 65)
Growing Degree Days31.5 (Base 50)
Averaged from 51 records on April 30, 2013
WEATHER CONDITIONS BREAKOUT
WIND DIRECTION BREAKOUT
WEATHER BY HOUR - APRIL 30, 2013
[ °C ]   °F
Local TimeTemperatureDewpointHumidityBarometerVisibilityWind DirectionWind SpeedGust SpeedPrecipitationEventsConditions
12:30 AM78.8 °F73.4 °F83 %29.83 in3.1 miNE (50°)6.9 mphRainRain
1:00 AM77.0 °F75.0 °F92 %29.78 in4.0 miCalmRain-ThunderstormThunderstorms and Rain
1:00 AM75.2 °F73.4 °F94 %29.80 in1.2 miNNE (30°)4.6 mphRainRain
1:30 AM77.0 °F73.4 °F89 %29.80 in1.9 miSE (130°)2.3 mphRainRain
2:00 AM77.0 °F73.4 °F89 %29.80 in3.1 miNW (320°)5.8 mphRainRain
2:30 AM77.0 °F73.4 °F89 %29.80 in3.1 miVariable4.6 mphRainRain
3:00 AM77.0 °F0.0 °F29.80 in4.3 miNNE (30°)2.3 mphRainLight Rain
3:30 AM77.0 °F75.2 °F94 %29.77 in4.3 miENE (60°)2.3 mphMostly Cloudy
4:00 AM77.0 °F75.2 °F94 %29.77 in4.3 miVariable3.5 mphMostly Cloudy
4:30 AM77.0 °F73.4 °F89 %29.77 in4.3 miESE (110°)5.8 mphRainLight Rain
5:00 AM77.0 °F75.2 °F94 %29.80 in4.3 miVariable2.3 mphMostly Cloudy
5:30 AM77.0 °F75.2 °F94 %29.80 in4.3 miEast (100°)3.5 mphMostly Cloudy
6:00 AM77.0 °F75.2 °F94 %29.80 in5.0 miVariable3.5 mphMostly Cloudy
6:30 AM77.0 °F75.2 °F94 %29.80 in5.0 miVariable2.3 mphMostly Cloudy
7:00 AM78.0 °F77.0 °F94 %29.78 in6.0 miCalmScattered Clouds
7:00 AM77.0 °F75.2 °F94 %29.80 in5.6 miCalmMostly Cloudy
7:30 AM78.8 °F77.0 °F94 %29.83 in5.6 miEast (90°)2.3 mphMostly Cloudy
8:00 AM78.8 °F75.2 °F89 %29.86 in5.6 miEast (100°)3.5 mphMostly Cloudy
8:30 AM80.6 °F75.2 °F84 %29.86 in5.6 miEast (90°)5.8 mphMostly Cloudy
9:00 AM82.4 °F77.0 °F84 %29.86 in5.6 miEast (100°)3.5 mphMostly Cloudy
9:30 AM84.2 °F77.0 °F79 %29.86 in5.6 miEast (80°)5.8 mphMostly Cloudy
10:00 AM86.0 °F78.8 °F79 %29.86 in5.6 miVariable3.5 mphMostly Cloudy
10:30 AM87.8 °F77.0 °F70 %29.89 in5.6 miSouth (190°)4.6 mphMostly Cloudy
11:00 AM86.0 °F75.2 °F70 %29.86 in5.6 miNE (40°)5.8 mphMostly Cloudy
11:30 AM86.0 °F75.2 °F70 %29.86 in4.3 miENE (70°)6.9 mphRainRain
12:00 PM86.0 °F77.0 °F74 %29.86 in4.3 miWest (280°)5.8 mphMostly Cloudy
12:30 PM86.0 °F73.4 °F66 %29.86 in5.0 miWNW (290°)8.1 mphMostly Cloudy
1:00 PM86.0 °F78.0 °F71 %29.81 in6.0 miWNW (300°)2.3 mphPartly Cloudy
1:00 PM87.8 °F75.2 °F66 %29.83 in5.6 miWNW (300°)8.1 mphMostly Cloudy
1:30 PM87.8 °F75.2 °F66 %29.83 in5.6 miWest (270°)9.2 mphMostly Cloudy
2:00 PM87.8 °F75.2 °F66 %29.80 in5.6 miWNW (300°)6.9 mphMostly Cloudy
2:30 PM87.8 °F75.2 °F66 %29.80 in5.6 miWest (270°)6.9 mphMostly Cloudy
3:00 PM86.0 °F75.2 °F70 %29.80 in5.6 miWest (260°)9.2 mphMostly Cloudy
3:30 PM86.0 °F75.2 °F70 %29.77 in5.6 miWSW (240°)8.1 mphMostly Cloudy
4:00 PM86.0 °F75.2 °F70 %29.77 in5.6 miWest (280°)8.1 mphMostly Cloudy
4:30 PM87.8 °F75.2 °F66 %29.77 in5.6 miWNW (290°)10.4 mphMostly Cloudy
5:00 PM86.0 °F75.2 °F70 %29.77 in5.6 miWest (280°)9.2 mphMostly Cloudy
5:30 PM86.0 °F75.2 °F70 %29.77 in5.6 miWNW (290°)10.4 mphMostly Cloudy
6:00 PM84.2 °F75.2 °F74 %29.80 in5.6 miNW (310°)5.8 mphMostly Cloudy
6:30 PM84.2 °F75.2 °F74 %29.80 in5.6 miWNW (290°)6.9 mphMostly Cloudy
7:00 PM85.0 °F77.0 °F72 %29.76 in6.0 miNNW (330°)3.5 mphScattered Clouds
7:00 PM84.2 °F75.2 °F74 %29.80 in5.6 miWNW (300°)5.8 mphMostly Cloudy
7:30 PM82.4 °F75.2 °F79 %29.80 in5.6 miNW (320°)3.5 mphMostly Cloudy
8:00 PM80.6 °F75.2 °F84 %29.83 in5.6 miCalmMostly Cloudy
8:30 PM78.8 °F75.2 °F89 %29.83 in5.6 miCalmMostly Cloudy
9:00 PM78.8 °F75.2 °F89 %29.83 in5.6 miCalmMostly Cloudy
9:30 PM78.8 °F75.2 °F89 %29.83 in5.6 miCalmMostly Cloudy
10:00 PM78.8 °F75.2 °F89 %29.83 in5.6 miCalmMostly Cloudy
10:30 PM78.8 °F75.2 °F89 %29.83 in5.6 miCalmMostly Cloudy
11:00 PM78.8 °F75.2 °F89 %29.86 in5.6 miCalmMostly Cloudy
11:30 PM78.8 °F75.2 °F89 %29.86 in5.6 miCalmMostly Cloudy
Hourly data recorded from VTSP, located miles away from Phuket, Thailand







STORIES FROM OUR PARTNERS